GFSNIL_prec_cthk_000.txt.gz
RH
25 26 27 31 34 33 33 33 33 33 34 37 39 40 41 43 44 46 49 54 56 57
28 27 28 28 30 31 32 33 34 37 38 40 43 44 46 47 48 52 53 54 58 61
27 27 29 30 31 31 33 36 38 41 45 46 46 47 54 56 59 59 58 60 59 60
32 32 32 33 34 34 35 37 41 45 49 51 54 55 55 55 57 58 61 61 64 62
44 43 39 40 40 41 42 44 46 49 51 54 56 57 58 61 62 60 59 58 57 57
46 50 52 52 51 50 48 46 46 47 49 50 53 57 59 61 62 60 60 63 60 62
42 46 47 50 52 53 55 56 57 58 58 59 62 64 67 66 63 60 59 63 64 63
47 48 47 47 47 48 52 55 56 57 59 59 58 58 60 63 63 65 62 62 65 70
49 47 49 50 50 50 50 52 54 56 58 60 61 59 60 63 71 73 71 69 64 69
44 42 42 46 50 49 52 54 56 57 57 56 61 65 68 68 67 70 71 70 72 73
45 45 43 41 41 48 53 53 55 56 59 62 60 67 69 67 70 67 63 70 70 74
46 43 41 40 40 41 42 46 52 58 65 67 65 76 77 71 67 63 65 73 69 71
53 50 47 45 45 45 45 44 45 49 61 70 69 83 86 82 76 70 67 72 78 81
54 53 51 50 51 51 50 49 49 50 54 61 69 84 88 91 88 80 70 66 74 80

GFSNIL_prec_cthk_003.txt.gz
RH
31 32 33 35 36 37 38 37 38 38 38 37 39 39 42 45 45 47 50 55 60 63
31 30 29 30 32 32 35 36 35 37 40 41 43 45 49 51 51 55 58 57 60 61
36 37 36 36 35 34 36 38 40 42 44 44 46 50 54 57 58 61 62 65 64 63
41 41 43 45 45 43 43 44 44 47 48 50 52 56 60 63 64 64 65 68 68 68
43 44 46 48 49 50 51 52 52 52 52 50 51 54 58 59 60 61 63 64 69 66
48 48 46 45 46 50 50 51 53 56 58 60 60 61 62 64 66 70 69 71 80 80
48 46 46 45 45 45 46 47 47 50 52 55 58 61 65 67 69 67 67 72 76 82
49 47 44 43 41 41 41 41 42 48 50 50 53 56 60 66 68 68 67 70 77 79
49 46 44 42 39 37 36 36 38 39 42 50 55 58 64 71 68 66 68 69 74 76
53 51 49 48 47 45 43 41 40 39 39 40 43 51 61 67 78 72 70 68 66 74
56 54 53 52 51 49 47 46 45 44 43 42 42 45 52 65 71 74 73 74 71 68
56 54 53 53 51 48 47 46 46 46 46 48 49 52 56 59 64 66 68 76 74 79
55 54 51 49 48 47 46 45 44 44 48 52 51 51 53 60 63 60 63 64 83 87
44 44 44 42 42 42 42 43 46 47 48 48 48 47 49 57 64 68 65 67 81 93

GFSNIL_prec_cthk_006.txt.gz
RH
34 34 34 33 33 35 38 41 43 46 48 49 49 48 49 53 55 57 59 58 59 63
36 36 36 38 39 39 39 38 37 39 44 48 54 55 58 59 59 58 60 63 67 70
31 33 36 39 41 42 44 45 46 46 47 47 48 51 57 59 65 69 70 70 71 72
42 42 43 44 45 45 46 48 52 55 55 54 55 56 56 57 60 63 69 73 75 78
43 43 43 43 43 44 44 44 43 43 46 51 57 62 64 64 65 67 68 70 74 80
47 46 46 45 44 43 42 43 42 41 41 43 46 51 54 59 64 68 71 73 75 74
46 45 44 44 45 45 45 44 43 41 39 39 41 43 47 55 60 62 63 65 67 68
48 48 47 46 46 46 46 46 45 44 44 44 43 42 46 46 48 53 55 58 61 64
53 52 50 49 48 48 49 49 48 48 47 46 47 47 46 50 51 48 48 50 51 58
56 53 52 53 52 51 50 49 50 50 51 49 48 50 54 55 54 53 51 51 51 52
56 55 53 50 48 46 46 46 44 44 47 50 51 56 57 53 49 45 45 48 50 53
48 43 38 32 31 32 34 37 38 40 43 47 50 49 43 42 40 38 38 45 47 51
37 31 27 27 27 26 26 24 25 24 29 35 39 36 36 37 40 41 42 37 37 46
30 28 26 24 22 23 20 22 20 21 22 24 26 32 36 38 40 48 43 40 41 43

GFSNIL_prec_cthk_009.txt.gz
RH
29 31 33 34 34 35 36 37 37 37 39 41 46 48 52 57 61 61 68 71 70 72
36 37 37 38 39 40 42 44 45 47 49 51 52 52 52 54 58 60 64 71 79 84
41 42 42 43 43 43 43 43 44 44 44 44 46 51 56 59 60 59 59 58 62 71
43 43 43 43 42 43 43 43 43 43 43 43 44 45 47 50 54 59 64 68 69 68
42 41 41 41 41 40 40 40 41 42 42 42 42 44 45 47 50 59 63 66 67 68
43 42 42 42 42 42 41 41 42 44 45 46 47 48 49 51 52 52 53 55 58 59
48 48 48 48 46 44 43 42 43 44 46 48 48 50 53 53 52 53 53 53 54 53
52 51 50 48 46 44 44 43 43 44 44 45 47 50 51 53 55 55 54 51 51 50
51 50 46 41 37 33 32 34 35 38 38 37 37 40 45 52 52 53 52 45 42 43
44 36 32 31 29 27 27 27 25 27 24 27 28 33 44 49 47 48 42 41 43 41
35 32 31 30 29 28 26 28 29 27 28 27 24 32 49 46 45 39 37 38 39 39
36 33 32 30 28 29 28 27 23 23 22 24 25 33 35 32 26 29 33 39 41 40
37 35 32 32 30 28 25 22 21 20 20 22 25 23 19 16 21 23 28 35 35 35
35 33 31 28 24 22 21 19 18 18 18 19 17 13 12 17 20 24 32 29 28 31

GFSNIL_prec_cthk_012.txt.gz
RH
35 36 38 40 40 40 39 39 38 38 39 40 41 44 48 52 56 58 60 62 65 73
42 42 42 39 38 37 37 36 34 34 33 34 35 36 38 40 42 47 52 56 61 65
40 38 37 37 37 37 37 36 36 36 36 37 37 37 38 38 39 41 44 49 55 62
39 40 41 40 39 39 39 39 38 39 39 40 41 42 42 42 43 46 48 49 52 54
41 42 43 42 42 42 41 40 39 38 39 41 42 43 45 47 49 50 52 53 56 56
46 46 45 44 42 40 38 37 36 35 35 36 39 41 43 49 48 51 54 57 57 56
49 47 44 41 37 33 29 25 23 23 23 22 23 24 28 31 37 41 43 45 46 48
47 43 37 31 28 25 23 23 22 20 20 20 20 22 23 27 32 38 38 38 39 40
42 37 32 28 25 23 22 20 20 20 20 21 24 26 24 27 34 35 35 34 35 36
37 31 28 26 25 25 23 23 25 27 27 25 24 23 23 28 29 30 29 27 25 22
32 30 28 27 26 26 28 28 26 24 22 20 18 19 23 22 19 16 15 18 14 14
30 29 31 31 31 31 28 26 24 22 19 18 19 21 19 20 20 21 21 20 19 26
35 36 35 34 33 31 27 24 23 22 22 23 24 23 25 26 27 28 30 30 28 27
41 40 39 38 34 29 27 26 26 26 24 25 26 26 28 30 36 36 41 37 31 25

GFSNIL_prec_cthk_015.txt.gz
RH
37 39 39 37 35 34 34 34 34 33 33 33 33 33 33 33 34 34 34 35 38 45
41 38 36 36 37 36 37 36 36 36 35 35 35 35 35 36 37 38 39 42 44 47
38 38 39 40 40 40 39 37 36 35 34 33 32 33 34 35 36 38 41 43 44 47
40 41 42 42 42 40 37 35 33 30 27 25 24 23 23 24 28 34 33 37 42 46
44 45 45 44 42 37 33 30 26 23 21 19 18 17 17 16 20 20 24 28 31 37
49 47 44 40 35 31 27 24 22 21 19 18 17 16 16 19 19 18 22 30 33 35
47 42 36 33 30 27 25 24 23 22 20 19 19 20 20 21 22 26 30 33 32 32
40 36 33 31 29 27 26 24 21 20 21 22 22 22 23 23 24 28 26 23 22 21
38 34 34 31 29 26 24 24 24 25 26 26 27 26 24 25 26 24 21 17 16 15
37 39 36 31 28 27 28 28 30 33 33 31 28 26 23 25 26 24 22 22 21 18
40 34 32 30 31 31 31 34 34 32 29 28 26 24 24 27 26 27 27 27 27 27
35 34 33 33 33 34 32 28 28 28 27 26 24 24 26 28 28 29 30 32 34 35
35 34 33 31 28 27 29 29 28 25 23 22 21 22 28 32 36 36 37 38 39 34
31 27 25 26 28 29 28 24 21 19 18 19 23 25 29 36 40 48 49 47 38 36

GFSNIL_prec_cthk_018.txt.gz
RH
43 42 37 34 34 35 36 36 36 34 33 32 30 28 27 25 25 26 27 30 33 36
41 38 38 38 39 39 39 37 35 31 28 25 23 21 19 18 17 17 20 25 26 28
40 41 42 44 43 40 35 32 29 26 23 20 19 18 18 18 17 17 19 19 17 20
45 46 46 43 39 34 31 27 24 22 21 21 21 21 20 18 16 16 15 16 19 26
45 45 43 39 34 30 26 25 25 24 22 21 20 19 18 17 17 18 19 23 28 28
46 43 39 35 32 29 28 28 25 23 22 21 21 21 22 22 23 24 27 32 32 29
46 43 39 36 31 30 29 26 25 25 23 23 24 26 25 25 24 25 30 33 32 28
45 44 39 33 33 31 28 27 25 24 25 26 24 21 21 22 23 26 29 27 25 23
45 44 37 33 32 29 27 25 25 24 21 19 21 22 21 24 24 23 22 21 20 22
39 34 33 32 30 28 27 23 19 19 20 19 18 16 16 23 24 23 22 22 23 25
34 34 32 30 28 22 18 19 20 19 17 16 16 16 18 24 24 24 26 30 32 35
35 33 28 22 18 20 21 20 17 17 17 17 16 17 23 27 30 31 32 30 31 40
30 23 19 20 22 23 21 19 18 18 18 18 17 18 26 34 37 35 33 33 39 38
19 20 22 25 25 22 21 20 20 19 18 18 23 25 29 37 37 39 44 45 37 36

GFSNIL_prec_cthk_021.txt.gz
RH
46 47 45 42 39 38 36 33 29 26 23 22 21 20 19 18 17 17 16 17 18 18
49 46 42 41 38 35 34 30 28 25 23 22 20 19 18 18 18 18 18 17 17 18
44 44 44 39 38 36 33 29 25 24 23 22 21 20 19 20 20 20 20 21 21 23
48 44 42 40 38 36 33 28 26 25 24 22 22 21 21 22 21 20 18 17 18 24
45 44 43 39 38 35 33 28 26 24 23 23 24 23 21 18 15 14 15 18 21 20
47 46 39 40 36 32 29 26 25 24 24 24 22 18 15 15 14 13 14 16 18 18
49 47 43 38 32 29 27 26 25 25 23 18 16 16 14 12 13 15 17 18 19 19
49 41 36 33 30 29 27 26 23 19 17 18 16 14 14 14 16 18 18 19 19 21
41 36 32 31 30 28 24 21 18 19 18 16 15 15 14 16 22 23 22 21 21 24
39 34 33 31 26 22 19 20 20 18 16 16 16 16 17 25 25 24 24 26 28 27
37 33 29 23 20 20 21 21 19 18 18 17 17 18 21 25 24 23 26 30 33 35
31 25 20 20 22 23 22 20 19 19 18 18 18 20 23 26 27 24 29 32 36 39
22 20 22 24 24 23 21 20 20 19 19 20 19 19 24 30 32 32 33 36 38 38
22 23 25 25 23 22 22 21 20 19 19 20 22 25 26 32 34 38 40 42 38 38

GFSNIL_prec_cthk_024.txt.gz
RH
50 51 49 46 42 36 33 33 32 30 27 23 21 21 20 20 19 20 21 25 24 24
50 48 46 43 39 35 33 33 31 29 27 23 22 22 21 21 21 21 22 20 19 18
48 46 46 41 36 34 35 32 29 27 25 24 23 22 22 22 19 17 17 17 17 16
49 49 46 43 40 40 36 32 28 26 24 24 24 22 19 17 17 17 16 16 16 16
52 48 46 44 40 38 33 29 27 26 25 24 20 17 17 16 16 17 16 16 18 20
51 47 44 39 38 32 30 29 27 26 23 19 19 17 16 17 17 17 17 19 23 25
47 44 39 35 32 31 30 28 26 23 20 20 18 16 16 15 17 18 20 23 28 28
43 38 35 34 33 31 28 25 22 22 22 18 16 16 14 15 19 20 22 28 28 29
42 38 38 33 30 26 24 23 24 23 19 17 16 15 14 16 23 23 30 29 29 30
43 40 33 28 25 24 24 25 24 19 18 17 16 16 16 24 24 32 31 31 31 30
39 32 28 25 25 25 26 25 20 20 18 19 19 20 24 26 27 32 32 34 38 35
33 28 25 25 26 27 24 20 19 19 20 20 21 23 26 28 34 33 32 33 37 41
27 25 25 26 27 24 20 19 19 20 21 24 25 27 29 34 36 34 34 35 40 45
25 25 27 28 25 21 20 20 20 22 25 27 29 30 31 37 38 38 37 39 39 47

GFSNIL_prec_cthk_027.txt.gz
RH
41 48 52 48 43 40 36 34 33 29 28 27 26 24 24 24 24 23 19 18 18 17
52 51 48 45 43 41 38 34 32 30 29 27 26 25 25 23 19 18 18 17 16 16
51 48 47 46 45 41 35 32 31 29 27 27 27 25 21 19 19 18 17 16 16 16
49 48 48 47 42 37 31 28 28 29 29 28 24 20 20 20 18 17 17 17 18 19
49 50 49 44 38 28 26 28 30 30 28 23 22 22 21 19 18 17 17 18 20 22
54 51 46 42 33 29 30 31 30 27 23 23 24 22 19 17 16 17 18 19 23 25
51 48 45 40 33 31 31 29 25 24 25 25 22 19 16 16 16 17 19 21 26 30
50 46 41 36 33 31 28 25 25 26 26 21 18 16 16 17 19 20 22 26 32 32
47 41 37 34 32 28 25 25 27 26 21 18 16 16 18 21 22 24 28 32 32 32
41 37 35 32 28 26 26 27 25 21 18 17 17 18 20 24 26 28 33 34 34 34
38 36 32 28 26 26 27 24 21 19 18 18 19 21 24 27 29 34 37 38 40 40
37 31 27 24 24 25 24 21 19 18 18 20 23 25 28 32 36 37 39 41 43 45
31 26 23 24 26 24 21 20 20 20 22 24 24 29 33 40 42 40 41 40 42 45
24 23 26 26 24 21 21 22 22 24 24 26 31 35 39 43 46 50 48 45 42 44

GFSNIL_prec_cthk_030.txt.gz
RH
46 44 45 49 48 44 42 40 34 30 27 25 25 25 25 25 21 19 20 19 17 16
43 49 52 49 44 44 41 37 29 25 25 25 26 26 24 21 21 20 17 16 15 15
52 56 52 48 45 42 39 32 25 25 26 27 26 24 21 22 20 17 15 15 14 15
60 57 52 49 45 44 37 28 26 27 27 25 23 22 22 20 17 15 15 13 13 14
63 59 53 51 47 39 29 27 27 26 25 24 23 23 21 17 14 14 13 12 13 15
61 56 54 48 41 33 28 28 27 25 25 24 23 19 15 13 14 13 13 13 16 18
60 58 49 44 35 29 28 27 26 25 24 21 17 15 14 14 14 15 17 18 20 25
57 50 45 36 30 28 28 26 25 23 19 17 16 15 16 17 18 20 21 21 25 31
52 47 38 31 29 28 26 24 22 19 17 16 16 16 19 21 22 23 24 26 32 36
49 42 33 30 29 26 23 22 19 17 16 16 17 19 21 23 25 27 29 34 36 37
45 35 32 30 25 23 22 19 17 16 17 18 19 20 22 25 29 32 37 39 42 42
37 34 30 24 24 22 20 18 18 19 18 19 20 22 25 35 37 38 38 42 45 49
35 29 24 25 23 21 20 20 20 20 20 20 22 24 31 39 40 43 42 41 44 44
27 24 26 25 23 22 22 22 21 21 21 22 25 28 32 40 45 49 48 47 40 39

GFSNIL_prec_cthk_033.txt.gz
RH
47 47 48 48 49 50 49 43 39 32 26 25 24 24 23 21 21 21 21 20 18 16
50 48 47 52 57 56 48 42 35 27 27 26 24 22 21 22 23 21 18 15 14 12
50 50 52 59 64 56 48 39 30 28 25 22 22 23 24 23 20 16 13 12 11 10
55 58 60 64 60 53 45 34 28 24 23 23 24 25 22 18 14 12 11 11 11 11
64 65 64 62 56 49 37 28 24 23 24 26 25 21 16 13 12 12 12 13 14 15
72 65 65 59 50 38 32 25 24 26 27 24 19 15 12 12 14 15 16 17 17 17
67 69 61 52 44 33 27 26 28 28 24 18 14 13 14 16 16 17 18 18 19 21
71 63 57 46 36 29 28 29 28 23 17 14 14 15 16 18 18 18 20 22 24 26
64 61 47 39 32 30 30 28 22 17 16 16 17 15 16 19 19 21 25 28 29 31
59 49 42 33 30 32 28 22 18 17 18 17 16 15 19 21 24 28 31 32 33 34
51 45 33 32 32 28 23 20 19 19 18 17 17 19 23 24 28 29 32 35 35 36
44 34 34 33 28 24 22 20 20 20 19 19 20 22 26 29 29 31 34 32 35 41
34 35 33 29 26 24 22 21 21 21 22 23 24 24 29 32 37 35 31 32 34 38
36 33 30 29 27 24 23 23 23 23 24 25 26 25 30 34 38 39 40 38 38 40

GFSNIL_prec_cthk_036.txt.gz
RH
45 47 48 49 48 48 49 54 52 40 30 28 28 25 24 23 22 22 21 19 16 14
49 51 52 53 51 52 56 58 48 36 30 29 27 25 23 23 23 21 17 15 12 11
52 55 58 55 57 60 62 54 40 32 30 27 26 25 25 25 21 17 13 12 12 13
58 62 60 63 67 67 59 47 35 31 29 27 25 27 25 20 16 13 13 14 15 16
62 64 68 73 70 63 53 38 33 31 26 27 28 24 19 15 13 14 16 16 17 17
66 69 75 74 68 58 42 37 31 27 30 29 24 19 15 14 15 16 17 18 19 20
69 76 78 71 62 47 40 31 29 31 30 25 19 16 15 15 17 17 19 20 22 24
76 81 73 66 53 41 33 31 32 31 25 20 17 16 16 19 20 20 21 22 24 27
81 77 71 60 40 36 32 33 32 27 21 18 18 17 19 22 22 23 24 25 26 26
81 75 61 44 38 33 35 34 28 22 20 19 19 19 19 20 24 25 25 26 27 27
77 55 45 37 34 35 36 29 24 22 21 21 21 21 20 22 25 24 25 27 29 33
56 44 37 35 37 38 31 26 25 24 23 23 22 22 22 27 26 26 26 28 34 36
42 39 36 38 39 33 29 27 26 25 24 24 24 24 24 30 32 31 28 31 31 34
38 35 39 40 35 32 30 28 26 25 25 24 25 25 28 33 36 34 36 32 32 36

GFSNIL_prec_cthk_039.txt.gz
RH
39 42 47 49 52 54 54 54 52 51 46 33 31 30 28 27 27 27 24 22 21 18
46 48 51 55 57 57 58 56 55 52 42 32 31 29 29 29 26 24 24 20 17 15
50 53 57 58 60 63 61 61 57 49 36 33 30 31 29 25 26 25 21 17 15 15
54 57 59 61 65 66 66 62 53 44 34 34 34 29 26 28 26 21 16 15 17 18
57 60 65 67 68 68 67 60 51 36 36 35 29 28 29 27 21 17 17 18 19 20
62 67 69 70 68 71 67 58 43 40 36 30 29 30 28 21 17 18 20 20 21 22
68 71 70 68 71 73 65 51 44 36 33 30 32 29 22 19 20 21 21 22 22 23
71 69 68 73 77 72 58 42 37 33 31 33 30 24 20 20 22 22 21 22 21 20
68 70 76 83 76 64 43 38 34 33 34 32 25 22 21 23 22 22 21 20 20 20
72 81 86 80 68 43 37 36 35 36 34 27 24 23 22 22 24 22 22 21 22 24
87 87 82 70 44 37 39 36 38 36 29 26 25 23 22 22 21 22 22 23 26 29
87 80 69 42 39 39 37 40 37 31 28 27 25 23 22 21 22 23 24 26 31 30
79 61 39 38 38 40 41 37 33 31 29 26 24 23 21 24 25 24 27 29 28 30
47 39 38 39 41 41 38 34 34 31 27 25 24 22 21 26 28 30 31 27 28 30

GFSNIL_prec_cthk_042.txt.gz
RH
58 55 50 45 47 50 52 55 58 58 57 54 49 37 30 31 30 30 29 27 25 25
52 47 46 50 52 55 58 60 62 62 59 56 46 34 33 32 32 30 27 27 26 24
48 48 51 53 56 59 62 63 65 64 62 54 40 33 34 35 31 28 28 27 24 21
49 51 54 57 60 63 64 66 67 65 60 48 37 38 36 32 30 29 28 25 22 21
51 54 59 62 64 65 68 68 66 63 57 44 42 36 33 30 30 30 26 22 22 21
56 59 62 66 69 70 70 66 67 64 53 43 35 34 31 32 31 27 24 23 22 21
60 64 68 71 73 71 67 70 70 59 47 36 34 33 33 32 28 24 23 22 21 21
65 70 74 76 70 68 73 74 63 52 37 34 35 34 32 29 25 24 22 22 22 21
71 76 78 71 71 77 78 66 55 40 36 36 36 34 30 27 26 23 23 21 21 20
78 77 70 75 83 81 68 53 40 36 37 38 35 31 28 25 23 23 22 21 20 20
73 72 82 85 80 70 50 38 38 39 39 36 32 30 26 23 23 22 21 21 21 23
79 87 86 78 68 44 38 40 41 40 37 34 32 27 24 22 23 22 21 21 24 27
84 84 76 56 41 41 42 41 40 39 37 33 28 25 22 24 25 23 22 24 25 28
77 69 48 44 43 41 42 40 40 39 35 30 26 23 20 20 24 24 30 26 28 29

GFSNIL_prec_cthk_045.txt.gz
RH
64 62 69 68 63 58 54 52 55 58 60 60 58 55 50 44 34 31 31 31 31 29
66 64 65 62 54 50 54 57 59 62 62 60 60 56 50 41 33 34 34 32 30 28
70 66 64 57 53 56 58 61 64 64 62 64 61 53 48 38 38 34 32 30 30 29
71 67 59 55 56 59 62 65 66 66 66 64 56 52 47 41 35 33 31 31 29 27
67 62 57 57 60 63 66 68 69 69 67 58 54 52 48 40 33 32 32 30 28 27
61 59 58 60 63 67 70 71 72 71 61 58 58 53 43 37 33 32 31 29 28 25
60 59 61 64 68 71 74 75 73 65 62 63 55 43 38 33 33 32 30 28 25 23
59 63 66 70 73 77 78 73 67 68 67 56 45 38 33 34 32 31 29 25 23 22
64 68 72 76 79 81 72 72 75 69 54 44 37 36 35 32 31 30 25 25 22 20
71 75 78 82 80 71 78 78 67 51 40 38 38 36 33 32 29 25 25 21 20 22
76 80 82 73 76 83 78 64 46 40 41 39 37 34 33 29 26 25 20 20 21 20
81 74 78 82 83 76 58 43 42 41 40 37 36 34 30 28 24 21 21 20 20 22
81 82 82 83 70 51 43 43 41 41 38 38 35 31 29 22 23 25 22 21 23 24
84 82 76 62 45 43 42 41 41 39 40 36 32 28 21 18 24 23 24 23 23 24

GFSNIL_prec_cthk_048.txt.gz
RH
62 67 69 75 77 73 69 71 67 58 57 58 59 59 56 52 48 46 40 37 33 30
67 69 69 75 70 67 64 61 57 57 61 61 62 60 55 52 51 44 43 37 35 34
68 72 74 73 74 70 64 59 61 62 63 64 63 59 57 55 49 46 42 39 38 33
73 74 72 78 77 69 63 62 62 64 66 66 63 61 59 54 49 45 41 37 33 28
73 76 77 78 71 66 64 62 65 67 68 67 65 64 58 52 50 43 38 32 29 30
75 79 76 70 66 67 63 65 68 70 70 69 68 60 56 55 44 38 31 32 31 30
76 77 70 66 68 65 66 69 72 73 72 72 62 60 57 44 36 33 33 31 30 30
76 70 67 69 66 67 71 74 76 76 74 63 65 58 44 36 35 35 33 32 32 31
67 68 70 66 69 73 77 79 79 70 67 68 57 41 37 36 33 33 32 33 31 27
70 69 67 72 76 79 80 79 70 73 67 52 40 39 37 34 32 32 32 31 25 23
67 72 77 78 79 80 75 78 74 63 47 42 40 37 35 32 31 34 32 25 24 23
78 79 80 80 76 84 80 70 56 43 42 41 39 35 32 31 31 31 26 24 24 30
80 79 77 84 86 77 62 45 42 42 42 41 35 33 32 29 28 26 24 23 25 29
79 85 85 83 69 53 42 42 43 44 41 35 33 32 29 23 23 24 24 27 29 30

GFSNIL_prec_cthk_051.txt.gz
RH
44 47 53 61 71 75 78 80 78 75 75 62 56 58 56 56 54 53 49 50 48 42
47 52 59 66 73 77 74 74 74 69 62 55 57 59 59 57 56 52 52 53 46 42
54 58 69 72 73 76 75 72 74 67 61 62 63 60 59 58 56 55 57 50 44 39
61 67 72 74 79 78 78 80 81 68 67 64 62 62 61 59 59 61 54 47 42 38
70 71 74 77 77 78 80 81 71 70 69 64 64 63 63 64 64 55 50 44 39 33
73 75 77 77 78 77 80 72 69 71 67 66 65 66 67 66 56 53 46 39 34 34
75 74 78 81 76 79 74 71 71 69 68 68 70 70 67 57 57 46 37 36 37 35
75 77 82 79 77 75 72 72 69 69 71 74 72 67 61 58 43 36 36 36 35 32
79 85 83 76 74 72 74 70 71 76 76 73 65 65 56 41 37 35 34 32 31 31
86 83 75 73 74 75 71 74 80 77 72 69 65 52 40 38 35 33 30 32 32 29
82 77 75 77 73 74 80 82 78 73 71 61 47 41 38 36 32 29 31 31 29 26
80 78 75 75 81 84 84 77 75 66 54 43 41 39 37 30 29 30 31 28 24 23
75 77 83 85 85 83 81 71 59 45 42 42 40 35 30 30 29 28 27 24 22 23
85 86 83 87 88 76 62 48 42 42 43 41 35 32 31 29 25 27 24 22 22 23

GFSNIL_prec_cthk_054.txt.gz
RH
48 51 51 51 54 57 62 64 74 80 82 83 76 75 62 57 58 59 57 53 51 49
49 49 49 52 57 61 66 70 79 81 80 78 75 74 64 63 64 59 56 54 53 53
51 53 52 56 60 64 71 79 80 80 79 77 80 68 66 68 61 58 57 56 56 57
59 57 56 62 68 72 78 78 79 81 77 77 73 71 70 67 61 59 58 60 59 48
67 66 68 69 73 81 78 79 83 82 82 81 73 71 69 64 61 62 63 62 50 46
75 76 75 78 80 78 80 84 83 82 78 76 72 72 68 63 65 65 62 51 47 36
83 83 82 84 80 82 80 84 85 78 78 75 75 70 66 69 67 62 53 45 35 35
87 89 87 84 84 79 85 85 81 82 76 76 72 68 71 68 61 55 41 35 34 34
89 89 86 82 80 81 84 83 79 76 77 73 72 73 69 61 52 38 35 34 31 29
91 87 86 79 83 88 84 78 78 79 74 76 75 68 61 46 38 36 34 29 29 31
90 85 86 89 84 82 80 81 80 79 79 73 67 53 42 38 36 33 28 29 30 30
92 89 85 83 83 82 82 83 84 77 72 59 48 40 38 37 31 28 29 29 27 24
81 84 86 85 83 87 89 81 77 63 50 42 40 39 35 30 29 29 28 26 21 22
88 85 84 91 92 87 81 66 53 42 41 40 38 34 31 32 31 30 29 26 24 23

GFSNIL_prec_cthk_057.txt.gz
RH
48 61 58 63 62 66 68 69 67 65 69 72 75 83 83 80 74 73 64 63 64 59
48 58 60 78 75 73 72 68 65 68 70 72 82 82 77 80 76 72 68 68 66 60
57 66 63 72 72 70 69 68 68 68 75 81 79 79 83 78 85 73 72 69 65 60
59 64 72 70 72 68 69 69 69 75 78 84 78 78 83 76 75 75 72 69 64 59
60 61 68 71 73 74 74 74 74 80 81 79 80 79 81 78 76 73 71 66 62 64
60 58 74 73 76 78 78 79 82 83 80 81 79 80 79 79 75 72 69 66 66 57
57 69 80 80 81 84 80 87 85 81 83 83 86 83 81 75 73 70 70 68 57 45
67 79 83 85 83 83 85 90 83 84 86 87 88 80 76 74 72 74 67 55 39 35
81 84 85 89 87 86 89 82 82 86 88 85 78 74 74 78 73 63 50 36 34 33
85 89 88 94 94 86 88 75 86 90 85 76 76 79 79 70 59 42 36 35 32 29
95 96 95 94 88 85 81 89 87 81 79 81 81 74 65 49 38 37 35 29 29 30
98 97 91 88 89 95 89 85 84 86 83 77 70 55 40 37 36 32 30 30 29 28
96 95 93 91 87 83 87 90 88 78 71 59 44 38 38 35 30 31 30 28 25 23
96 97 90 91 93 94 91 82 71 58 47 40 38 38 34 32 35 33 30 25 22 21

GFSNIL_prec_cthk_060.txt.gz
RH
34 42 49 56 58 63 66 71 79 83 83 83 81 78 73 75 75 81 82 73 73 67
33 38 42 48 58 61 69 71 78 83 88 91 88 79 73 75 78 78 74 76 74 69
30 36 44 49 55 67 74 81 86 88 94 94 85 74 74 82 75 78 86 78 69 69
40 43 50 62 62 68 74 83 92 92 92 83 73 81 79 78 81 71 77 73 69 70
47 66 69 71 67 75 78 82 85 89 83 76 77 78 79 75 72 76 78 73 74 70
56 56 69 71 75 73 81 88 87 81 79 80 77 79 76 87 78 77 77 78 72 67
75 67 56 57 72 72 85 88 84 80 80 76 90 84 76 83 83 83 79 72 72 67
89 81 60 71 64 79 83 84 82 79 77 79 87 82 89 84 77 78 74 70 65 57
94 78 67 68 84 83 83 82 84 86 95 91 91 84 76 78 81 76 69 61 50 37
83 80 65 91 87 87 84 87 89 96 95 96 91 91 88 81 73 66 53 42 34 32
82 72 96 94 99 93 97 92 98 97 90 81 83 85 77 68 59 46 35 33 31 29
78 95 97 98 99 98 98 98 93 84 86 89 79 71 63 51 37 34 33 30 29 29
97 98 98 98 98 95 94 90 94 91 80 74 66 54 40 35 34 33 30 30 28 26
98 98 98 98 94 92 95 93 79 73 65 55 43 38 35 35 33 30 30 28 25 23

GFSNIL_prec_cthk_063.txt.gz
RH
29 31 35 38 43 54 60 64 58 59 66 75 84 90 92 93 94 93 81 77 70 69
23 27 31 37 42 48 58 67 68 69 75 79 80 90 95 94 96 93 84 74 72 73
25 23 24 31 41 46 52 59 66 70 76 81 86 90 94 96 92 89 78 71 71 74
37 35 28 28 36 48 53 57 63 76 84 89 90 92 96 94 92 79 76 81 80 73
51 44 43 42 43 50 53 57 70 84 87 90 95 97 93 92 87 77 79 80 77 78
65 65 62 58 64 67 73 70 75 84 84 86 87 88 87 77 67 73 79 92 86 84
61 71 79 73 74 80 81 80 80 84 87 90 90 87 81 73 85 91 91 84 81 79
73 76 80 82 78 82 83 80 82 78 82 89 87 86 82 84 96 95 82 83 82 76
89 87 86 86 87 75 68 71 77 72 91 82 84 86 96 95 92 86 87 79 71 59
98 94 94 96 83 86 75 71 76 87 90 93 95 90 97 98 95 82 71 63 52 43
96 94 97 83 96 75 79 88 88 89 93 97 96 93 89 82 71 60 53 45 40 36
95 93 95 89 82 88 96 99 97 97 92 89 91 83 73 65 55 49 42 38 34 32
77 81 78 85 96 96 97 98 98 98 96 83 73 65 56 49 41 37 34 33 31 28
91 91 95 98 98 98 98 97 89 79 71 62 53 47 42 38 36 34 31 29 27 24

GFSNIL_prec_cthk_066.txt.gz
RH
24 25 28 30 33 36 44 57 62 70 74 75 71 68 74 83 89 93 94 92 93 91
21 22 25 28 32 36 39 47 56 68 73 81 78 76 76 82 92 93 92 93 90 90
24 24 23 24 26 28 33 38 43 54 63 73 86 84 86 87 88 89 91 88 86 87
36 34 32 32 31 28 32 39 44 48 63 77 83 87 89 89 88 88 85 84 86 89
42 45 48 48 45 43 41 46 53 55 60 72 73 79 82 85 88 84 90 92 88 92
41 46 53 63 63 65 60 59 61 67 68 73 72 77 83 87 91 88 92 88 90 88
47 47 48 65 73 77 78 75 75 78 79 78 76 80 85 85 82 85 90 92 88 87
55 60 65 67 73 83 87 90 88 88 89 87 84 83 84 88 90 97 91 89 93 95
70 72 77 81 85 82 84 91 94 92 90 87 85 85 88 93 98 95 98 97 90 79
78 77 94 99 97 93 90 89 83 80 84 87 87 86 96 96 94 96 86 79 70 58
90 92 98 97 96 96 89 92 92 94 91 82 85 95 98 93 88 79 69 59 51 48
92 91 93 93 96 92 91 96 94 89 84 98 97 89 86 78 70 60 53 48 42 37
79 84 88 92 92 87 90 89 97 98 97 89 82 78 69 60 51 46 40 36 35 32
91 85 85 90 96 98 98 97 95 87 78 70 65 60 52 44 40 37 36 33 30 27

GFSNIL_prec_cthk_069.txt.gz
RH
23 24 25 27 28 30 32 34 37 42 53 61 73 78 78 80 82 84 88 90 92 92
21 22 22 24 27 29 32 34 38 47 53 66 75 82 89 90 90 90 92 90 91 89
22 22 23 24 24 25 27 31 37 41 48 58 68 79 87 93 95 95 94 92 88 88
32 32 31 31 31 32 30 31 34 40 46 49 55 63 73 80 91 96 95 90 85 88
34 36 42 42 43 44 46 46 44 45 49 54 58 62 66 72 82 89 93 88 82 85
36 38 41 44 45 49 57 60 62 60 59 63 69 69 71 75 82 84 78 78 85 91
39 41 44 49 54 56 60 64 72 73 73 75 76 79 82 79 79 79 84 86 91 97
46 49 54 57 61 66 71 76 76 82 84 85 85 87 86 86 87 85 86 91 95 98
54 62 66 65 66 74 80 83 89 93 94 89 87 96 94 92 93 95 94 98 98 95
64 70 71 72 76 86 91 92 90 92 97 96 96 98 96 98 96 96 93 86 82 74
64 72 75 82 88 92 97 97 97 90 88 95 98 93 92 92 90 85 81 76 69 62
71 78 81 84 90 96 92 94 97 98 98 98 98 96 88 83 78 72 67 61 54 46
79 77 81 85 93 90 93 94 96 96 95 95 88 84 79 70 65 58 50 43 39 36
81 80 83 88 94 96 97 97 97 95 86 80 72 64 56 51 46 42 38 33 31 29

GFSNIL_prec_cthk_072.txt.gz
RH
24 26 27 30 30 30 30 32 34 34 37 41 47 54 65 69 73 79 83 84 86 90
22 22 22 23 23 24 27 28 32 35 37 41 46 49 59 69 75 85 86 89 96 92
22 21 21 22 23 24 25 27 30 35 40 44 48 52 58 68 78 88 93 96 97 95
26 26 26 25 25 27 29 32 35 38 40 44 46 50 56 63 71 79 84 89 92 90
34 34 36 39 40 39 40 43 46 47 51 52 53 57 59 63 66 70 75 81 86 84
34 34 35 34 35 39 42 44 49 55 61 62 62 65 70 74 75 75 78 80 82 79
36 36 36 37 41 45 50 54 58 62 67 70 71 73 79 83 88 90 81 80 80 80
38 39 41 43 45 50 56 61 63 69 76 78 80 81 86 87 92 94 88 86 85 89
43 45 49 52 53 56 59 61 71 77 80 86 86 89 87 97 93 97 91 97 97 97
53 53 56 58 60 65 70 74 79 82 87 98 98 98 98 98 96 98 99 98 93 83
57 58 62 63 65 69 74 79 85 90 93 93 92 96 94 97 97 94 89 84 76 72
62 62 65 68 71 75 78 81 85 91 95 94 93 97 93 91 84 79 78 75 66 56
65 64 66 70 72 77 78 83 88 92 95 95 94 88 84 79 72 62 53 48 44 39
70 70 70 72 78 83 86 88 90 94 92 86 76 68 59 55 51 42 36 34 31 27

GFSNIL_prec_cthk_075.txt.gz
RH
22 23 26 30 34 36 36 35 35 37 38 41 45 51 55 57 59 62 71 77 82 81
21 22 23 24 28 28 32 35 36 37 38 40 43 47 51 53 56 58 60 62 74 79
22 22 21 21 22 25 26 27 29 34 35 38 41 46 52 55 57 58 61 64 72 80
29 27 26 25 25 25 25 25 28 33 39 43 46 48 53 58 62 67 71 76 78 83
32 33 33 33 34 35 36 35 36 40 44 47 51 57 61 64 69 72 73 76 78 82
36 36 35 36 36 36 37 38 41 43 44 47 53 57 62 67 71 72 78 81 83 85
39 38 37 35 36 37 37 39 42 45 50 53 59 64 69 78 78 83 80 84 88 87
36 36 38 38 40 41 42 44 48 50 56 61 67 73 78 81 82 83 87 87 87 96
41 42 43 44 45 47 48 50 53 57 60 65 70 78 84 91 97 92 98 99 97 98
47 51 53 51 51 53 55 57 60 63 65 70 74 82 86 97 96 98 98 98 98 98
55 55 53 56 57 57 59 62 64 66 73 77 80 80 82 87 90 93 92 89 83 80
57 58 58 60 61 62 64 64 69 71 74 77 80 83 86 83 78 80 82 80 68 58
61 62 60 63 65 67 67 68 69 71 73 77 78 76 75 72 66 57 52 46 43 38
66 65 64 66 67 69 71 72 73 75 73 70 63 57 54 49 42 37 32 29 27 24

GFSNIL_prec_cthk_078.txt.gz
RH
20 21 22 25 30 34 38 38 38 38 37 38 39 42 45 50 57 62 66 70 75 75
21 21 22 23 26 29 33 36 38 36 36 38 39 41 44 49 52 56 64 70 72 74
22 22 22 22 22 24 25 26 27 31 32 32 34 36 39 43 51 56 62 65 72 78
24 25 25 27 26 25 25 25 26 26 28 34 36 38 41 47 54 58 65 72 76 80
29 30 31 33 33 34 34 33 33 35 36 37 38 39 41 42 45 50 62 66 68 76
35 34 35 35 37 38 39 38 36 36 38 40 41 42 44 49 54 59 69 74 76 80
39 39 38 37 37 34 34 35 36 37 38 40 42 46 48 55 60 66 75 78 81 87
40 38 38 36 36 37 38 39 40 41 43 46 48 50 52 57 59 67 71 75 79 81
42 40 39 40 40 41 42 43 45 46 48 51 54 53 55 60 62 72 79 86 86 94
44 46 47 47 46 46 47 49 51 52 55 56 58 60 63 63 67 70 77 82 92 96
53 52 50 48 50 52 52 55 55 57 59 62 64 66 66 70 73 73 75 71 73 75
57 54 54 53 55 56 57 60 60 61 62 66 68 69 69 68 67 68 67 61 51 44
59 59 59 56 59 60 62 62 63 63 64 67 67 65 60 50 44 39 34 31 28 26
64 64 63 61 61 64 64 63 63 63 61 50 38 31 28 26 26 25 24 23 22 21

GFSNIL_prec_cthk_081.txt.gz
RH
21 21 21 22 25 31 32 31 31 35 39 39 41 42 43 45 48 48 53 56 63 65
21 21 21 21 22 23 27 31 35 39 41 43 39 39 40 40 42 46 47 50 55 61
22 21 20 20 21 22 22 25 28 32 35 35 33 32 35 37 40 41 43 46 48 55
24 23 23 24 23 23 23 23 24 25 26 26 31 33 34 36 38 37 44 48 50 56
27 26 27 27 28 30 31 31 32 33 33 33 35 36 36 37 38 40 44 46 50 55
30 31 31 32 33 34 35 37 38 39 40 37 36 37 38 40 42 43 43 47 52 57
38 38 38 37 37 38 38 37 35 33 34 35 36 38 40 42 45 46 48 52 55 62
42 41 40 39 38 38 36 35 35 36 38 40 42 44 45 45 46 49 52 55 60 67
48 46 42 41 40 39 39 39 40 41 43 44 46 45 47 49 51 53 57 56 61 69
48 44 43 42 42 42 43 43 46 47 49 49 50 53 53 54 56 60 65 66 69 73
52 50 49 47 48 47 47 49 50 52 53 55 57 57 58 60 62 65 64 62 61 59
55 55 55 53 53 53 54 57 58 58 58 59 59 60 58 56 54 48 38 31 27 25
58 58 57 59 58 58 62 63 62 60 60 60 59 54 39 30 26 24 24 22 22 21
63 63 64 63 62 63 65 64 62 62 57 44 32 28 26 24 24 23 21 21 20 20

GFSNIL_prec_cthk_084.txt.gz
RH
32 29 26 25 24 24 25 25 28 30 33 34 37 38 41 44 45 45 48 48 49 50
26 25 24 24 23 23 24 26 31 36 39 38 37 41 43 44 40 43 41 44 44 45
26 24 23 23 23 23 23 24 25 30 36 39 36 39 39 36 33 38 40 41 42 44
26 25 24 24 24 23 23 23 24 25 28 31 34 33 33 34 36 40 41 43 43 44
27 27 26 26 26 27 27 28 27 27 28 30 31 32 34 38 38 37 40 44 46 47
31 30 29 29 30 31 32 33 35 36 37 38 39 43 41 39 38 39 40 42 43 44
35 34 34 36 37 37 37 38 38 39 40 39 37 35 35 37 38 40 42 43 46 48
44 42 41 40 41 40 40 40 40 39 38 36 37 37 38 40 42 44 45 47 50 53
44 47 47 46 46 45 43 42 41 40 40 40 39 41 44 46 47 48 49 51 55 58
49 50 50 48 46 43 41 40 41 42 44 46 46 47 49 50 50 50 53 57 58 59
57 57 54 53 46 45 45 46 47 49 50 51 51 53 54 55 54 54 54 50 43 33
60 58 54 53 51 51 52 53 54 54 54 55 56 57 54 51 46 37 30 25 22 21
62 58 58 58 58 58 59 60 62 61 59 58 56 52 39 31 26 24 23 22 20 19
62 62 62 62 62 63 65 66 64 61 60 54 38 30 26 25 24 23 22 21 21 20

GFSNIL_prec_cthk_087.txt.gz
RH
46 43 40 38 36 37 38 36 32 29 28 31 31 33 34 34 34 40 41 45 50 49
46 42 39 37 34 32 29 27 26 25 27 31 35 37 39 41 37 43 44 43 44 43
42 38 36 31 29 29 26 25 24 24 26 32 37 44 41 41 36 40 38 35 38 40
37 36 35 33 30 26 25 24 23 23 25 29 33 37 39 40 38 37 40 37 43 43
41 39 36 34 32 27 27 28 27 27 27 28 30 33 35 40 43 42 39 44 42 44
39 33 34 35 32 31 32 31 31 32 33 34 35 36 37 39 43 43 43 40 40 42
39 39 37 35 35 35 36 36 36 37 38 40 41 43 44 44 42 37 37 38 40 43
55 52 50 46 42 40 40 41 40 41 42 42 42 41 40 39 38 38 40 42 43 45
55 53 58 55 50 50 49 48 48 46 44 44 43 41 40 40 41 43 44 47 48 50
51 51 49 49 51 52 51 49 46 45 45 43 44 43 45 46 47 46 48 50 53 54
55 54 54 54 55 53 51 49 47 46 46 47 48 50 50 51 52 52 53 52 46 34
62 60 58 58 58 56 55 51 49 52 53 53 53 55 55 53 51 46 36 29 23 21
65 65 62 60 59 57 57 56 58 59 59 57 55 51 51 41 34 30 25 22 21 21
72 74 71 63 61 62 63 64 64 64 62 57 53 41 36 30 27 24 23 22 22 22

GFSNIL_prec_cthk_090.txt.gz
RH
57 55 53 52 49 47 47 48 50 55 55 50 46 40 36 34 35 38 35 34 38 43
57 55 53 48 44 42 40 39 37 35 33 32 31 32 37 39 38 39 39 40 39 44
59 58 55 51 46 43 39 38 35 32 31 30 29 31 35 37 38 47 43 38 37 38
55 54 52 50 45 39 37 37 33 30 30 27 26 29 36 38 39 42 44 39 39 37
50 51 50 46 44 41 39 37 36 35 31 29 29 33 33 35 38 39 41 43 45 46
39 42 44 47 44 42 40 38 38 37 36 31 31 32 33 35 37 38 41 43 44 45
38 38 45 48 48 43 40 35 37 38 36 35 36 37 38 39 42 43 45 44 41 40
42 42 46 55 55 50 44 42 38 37 38 38 40 41 42 43 43 44 42 40 40 42
48 46 51 56 59 54 51 51 50 46 47 46 45 45 45 44 44 43 42 42 46 47
51 50 53 60 59 54 54 58 58 57 55 53 51 47 46 45 45 45 46 49 50 52
55 55 55 57 55 54 53 54 59 55 51 48 48 48 49 48 49 51 52 53 54 52
58 58 59 59 61 59 59 58 57 53 52 50 51 52 54 54 56 55 53 43 34 28
65 65 65 65 63 61 60 60 58 56 55 56 60 59 58 54 50 40 34 29 25 23
70 71 71 70 67 64 62 62 61 62 63 64 59 55 50 41 36 30 26 26 24 24

GFSNIL_prec_cthk_093.txt.gz
RH
58 65 65 65 67 63 60 57 55 54 57 59 61 63 63 59 54 48 41 36 39 38
61 62 61 61 62 60 59 55 52 49 47 45 44 39 36 34 36 39 41 42 41 42
66 67 65 59 59 56 52 50 47 46 44 42 40 38 34 34 39 41 45 42 43 49
60 64 62 60 58 57 53 50 47 42 40 38 36 35 34 35 39 43 46 42 48 45
41 41 44 51 54 53 52 49 47 45 41 39 37 37 41 40 40 45 52 40 43 44
44 43 41 40 42 46 47 47 46 44 42 43 43 42 43 42 43 42 38 43 44 47
40 41 44 42 39 37 41 46 48 46 43 44 43 42 42 42 43 40 41 43 45 48
46 44 42 44 44 41 40 43 52 53 50 47 42 40 41 43 43 44 45 47 47 46
53 51 47 47 47 46 45 47 51 57 54 53 51 47 45 46 47 48 47 48 48 44
57 55 53 54 52 50 48 53 58 58 59 58 58 60 59 55 57 55 54 51 46 46
65 62 59 58 54 52 51 58 58 55 55 53 57 61 60 59 57 52 49 48 49 52
68 67 64 61 58 58 58 60 59 59 57 56 55 56 55 53 49 51 53 55 54 44
77 74 68 65 64 62 61 62 61 63 60 60 58 57 57 56 57 56 51 41 35 31
79 78 73 71 71 70 68 66 65 65 62 62 61 62 62 58 52 44 39 35 29 27

GFSNIL_prec_cthk_096.txt.gz
RH
79 75 77 78 84 80 80 84 82 82 74 71 73 73 70 69 66 65 65 60 55 50
72 72 71 76 74 74 76 76 68 65 60 56 52 51 50 48 47 47 45 42 43 44
63 70 69 71 71 69 67 64 61 59 58 55 52 50 49 46 44 43 42 46 47 47
55 60 66 68 68 65 63 61 57 54 52 49 48 46 43 42 41 41 44 46 52 58
45 48 52 55 57 59 58 56 54 54 52 50 48 46 45 43 40 44 47 44 55 69
40 41 42 42 42 42 41 41 44 47 47 48 47 47 46 46 43 48 46 52 55 55
37 37 37 39 40 41 42 41 39 37 37 40 44 47 48 47 47 45 45 50 53 51
46 45 46 44 41 40 38 38 41 41 40 38 41 46 51 52 49 50 45 45 46 48
49 49 50 50 48 47 44 40 41 44 45 43 44 49 53 53 54 53 52 49 50 51
54 56 55 54 53 51 50 47 44 47 50 49 50 53 57 59 60 62 62 61 58 58
65 66 63 61 60 55 54 52 51 53 54 53 55 59 60 61 61 61 64 64 64 65
71 72 72 70 67 64 61 60 62 61 58 58 63 62 60 59 59 59 64 66 61 55
77 76 76 76 72 71 69 67 67 63 61 62 63 62 63 62 62 61 59 59 57 49
80 78 81 79 78 77 74 72 69 67 66 64 64 67 68 64 64 63 59 50 44 37

GFSNIL_prec_cthk_099.txt.gz
RH
86 81 83 84 86 89 92 94 97 95 88 86 83 84 84 84 80 79 80 76 76 72
81 81 83 82 84 87 85 83 88 91 81 77 79 77 72 68 63 60 59 57 58 57
70 72 76 77 76 77 81 80 79 79 73 70 67 64 61 59 56 54 53 53 57 55
65 67 69 69 71 70 75 77 77 74 69 67 64 61 56 53 52 50 48 48 53 50
51 50 54 58 56 58 61 65 69 68 66 64 60 58 56 53 50 48 49 51 54 54
47 50 50 52 54 53 52 52 51 49 48 48 51 52 51 50 47 48 47 51 56 53
37 37 38 38 40 40 40 40 42 43 45 45 43 42 41 41 41 43 45 48 54 51
39 39 39 41 43 44 45 44 42 40 38 38 38 41 41 40 40 42 44 50 52 54
43 43 43 45 47 47 47 46 45 45 44 42 39 39 41 44 44 43 46 55 59 60
49 48 49 50 48 48 49 49 49 48 47 46 45 43 42 45 49 49 51 57 60 64
50 52 53 54 55 58 59 58 56 54 51 50 50 50 48 48 52 53 55 62 64 65
59 61 64 67 67 68 68 67 65 62 57 56 58 56 56 57 57 57 64 63 61 61
66 70 71 71 71 69 69 70 70 67 63 63 61 62 64 62 61 65 65 62 61 63
67 71 72 73 74 76 76 74 72 72 71 70 70 69 66 64 64 67 66 65 64 62

GFSNIL_prec_cthk_102.txt.gz
RH
81 82 80 86 88 86 88 91 91 94 97 96 93 95 92 89 88 86 83 82 83 81
82 83 82 89 87 88 81 80 83 88 89 87 88 87 89 85 79 76 76 73 70 69
86 85 87 88 90 85 84 85 83 85 85 86 85 84 82 75 72 65 62 64 65 62
80 79 78 83 83 83 78 80 82 83 84 85 84 83 79 76 71 65 60 57 56 57
76 74 70 70 68 70 71 69 69 67 71 74 73 72 69 66 64 60 59 58 56 54
66 60 59 57 57 59 59 59 56 56 60 62 59 57 56 54 52 50 48 49 49 46
52 52 47 49 47 45 45 48 50 48 46 45 45 43 43 42 41 42 41 39 39 42
37 35 35 36 37 38 38 40 40 42 42 40 41 41 40 38 36 36 37 41 43 45
41 43 43 43 42 43 44 43 44 44 42 41 42 42 42 41 41 41 40 42 43 47
47 47 47 47 47 47 47 46 46 44 44 46 46 46 46 46 45 46 47 46 49 51
49 49 50 50 50 50 50 50 53 54 53 54 53 53 54 53 51 51 51 52 53 54
53 55 56 58 60 60 61 60 60 60 60 60 59 58 60 62 59 57 57 60 58 62
56 58 58 59 60 61 63 65 68 70 68 66 64 63 66 65 63 64 64 64 67 66
57 57 57 60 64 66 69 72 75 75 73 72 72 70 70 71 69 69 70 71 68 67

GFSNIL_prec_cthk_105.txt.gz
RH
64 63 65 72 75 75 79 81 78 87 92 97 98 98 97 96 95 94 93 91 93 91
58 62 68 69 73 76 79 80 84 82 84 92 95 91 88 90 95 91 90 89 86 86
55 60 64 65 68 73 73 78 83 83 85 85 84 82 84 81 82 80 79 79 77 74
58 62 67 68 72 73 79 80 82 85 90 87 84 84 86 86 84 83 81 81 78 70
62 65 67 70 74 80 83 80 80 80 81 75 75 75 76 78 81 78 74 71 67 63
59 65 67 71 73 74 76 73 74 72 72 70 68 66 63 60 58 55 53 53 52 52
49 53 56 60 64 65 63 61 59 57 54 56 54 50 45 44 44 42 41 41 39 39
46 47 49 48 49 48 48 47 42 38 38 41 43 42 40 41 41 40 39 39 38 37
43 38 37 38 42 42 42 44 43 43 43 44 43 42 40 40 40 40 39 39 40 42
39 42 43 46 48 48 47 47 46 48 47 46 45 45 44 44 44 45 47 47 46 47
48 49 50 50 50 49 49 49 49 51 51 52 51 52 50 50 49 50 52 52 52 52
51 50 51 51 53 54 55 56 59 60 60 60 61 59 56 55 57 54 57 58 58 60
52 53 54 55 57 59 59 58 58 59 62 63 63 65 66 64 62 63 62 62 62 64
54 55 55 56 59 61 61 60 62 66 65 68 72 74 72 70 70 68 68 68 67 68

GFSNIL_prec_cthk_108.txt.gz
RH
69 71 67 67 69 71 71 73 77 77 76 78 83 86 88 96 98 99 98 97 94 94
60 60 61 63 62 64 66 64 66 67 70 73 75 83 86 88 89 91 96 97 98 95
58 56 54 53 54 56 58 58 56 60 65 71 75 79 79 81 84 85 87 85 90 89
50 49 50 53 55 56 57 57 59 64 67 73 79 79 80 81 82 86 87 91 90 86
56 56 62 60 58 62 62 63 65 71 72 74 82 83 84 82 79 87 89 85 86 86
62 63 60 65 64 59 61 64 68 73 79 82 85 84 79 76 75 70 69 67 65 64
59 57 51 55 56 60 59 57 62 68 71 68 68 67 65 62 57 53 47 44 44 44
56 55 54 52 49 49 50 57 61 57 55 52 51 50 48 47 43 41 39 39 39 39
57 53 50 46 46 44 41 39 38 41 41 44 46 44 42 42 42 39 40 39 40 41
49 47 46 46 40 36 37 38 41 42 43 44 47 47 46 46 45 44 43 43 43 45
46 45 41 39 39 40 42 45 47 46 45 47 50 51 51 51 50 50 49 49 49 50
42 44 44 45 46 47 47 47 48 50 53 55 55 56 56 55 55 56 55 55 55 56
52 52 51 48 47 48 51 53 54 56 56 56 57 56 56 58 60 62 64 63 61 63
51 49 48 49 51 52 54 56 57 59 60 59 57 58 60 63 67 70 70 69 67 67

GFSNIL_prec_cthk_111.txt.gz
RH
82 83 88 85 84 84 83 83 81 77 84 81 74 75 74 77 78 79 87 93 96 99
73 79 80 73 73 74 72 69 70 66 66 64 61 62 62 64 68 83 82 85 90 93
69 64 62 67 66 62 59 60 61 59 57 58 58 58 60 60 62 70 77 82 85 89
64 62 62 63 59 56 53 50 49 49 53 55 59 63 67 68 68 68 73 81 87 92
58 61 58 57 56 56 54 52 56 60 64 65 67 68 71 74 71 73 83 86 92 95
58 60 61 58 62 60 61 62 61 62 64 65 67 70 73 77 83 88 87 78 67 67
58 61 62 60 59 56 57 59 58 56 58 61 62 61 65 68 66 63 60 58 55 50
59 58 58 56 52 52 54 53 48 49 53 56 56 53 51 48 48 50 49 48 48 44
60 59 55 58 61 59 52 46 44 42 43 43 43 46 47 47 47 45 42 40 39 40
61 60 58 58 54 50 45 43 43 41 39 38 40 43 44 42 42 42 43 43 43 44
53 54 52 50 46 45 45 41 39 39 40 42 43 47 46 44 45 46 46 45 46 48
49 47 46 47 46 44 41 41 43 44 46 47 49 49 48 46 45 45 46 48 49 51
49 48 48 46 45 45 45 47 49 50 50 51 50 49 48 46 46 48 50 51 55 59
57 53 51 49 49 50 51 51 51 51 51 51 51 51 50 51 52 54 53 58 63 66

GFSNIL_prec_cthk_114.txt.gz
RH
93 91 95 96 91 91 95 90 93 89 89 91 90 92 88 78 70 69 67 67 74 79
90 88 92 92 88 91 91 93 95 94 92 81 80 80 72 65 57 57 62 61 68 79
87 88 87 88 86 85 82 80 80 74 66 62 63 57 57 55 54 56 60 66 67 69
81 83 83 81 76 70 66 63 66 62 56 54 51 53 58 59 62 67 65 65 68 69
69 76 79 73 68 68 64 57 59 57 55 59 62 62 63 63 68 68 71 72 73 74
69 70 68 65 63 61 58 58 60 59 62 63 64 65 68 68 70 71 77 74 63 59
65 62 62 57 56 55 57 54 55 56 57 59 58 57 60 60 62 59 54 49 45 43
67 64 61 62 61 57 54 52 53 51 52 54 52 53 50 50 48 45 45 46 47 46
63 63 64 63 59 56 54 53 52 47 45 44 42 40 39 38 39 41 40 40 39 39
61 66 65 64 61 60 60 59 53 48 46 44 42 39 37 40 42 41 41 43 42 42
55 58 63 65 66 63 61 57 51 46 44 42 38 40 41 43 45 44 46 44 43 42
55 54 55 59 58 57 53 48 48 47 46 43 43 45 47 51 50 47 45 44 43 43
57 58 60 59 58 54 52 53 52 54 49 48 48 52 53 53 50 48 48 47 48 49
58 58 59 60 59 57 54 54 54 53 52 51 54 54 54 52 50 51 53 54 52 54

GFSNIL_prec_cthk_117.txt.gz
RH
94 96 98 98 93 88 93 97 98 97 95 89 86 87 87 88 90 87 83 73 67 61
92 93 93 94 96 95 93 95 97 90 90 89 86 87 90 89 93 74 65 60 59 59
92 96 96 92 91 88 86 86 87 89 89 90 90 88 87 77 65 57 53 54 60 64
93 92 91 91 91 90 89 90 89 87 85 78 76 64 58 55 55 55 56 60 65 66
85 86 87 88 89 86 87 85 84 77 68 66 63 56 55 57 61 63 65 69 70 67
81 82 83 80 76 74 73 75 71 65 63 63 62 61 61 63 65 65 65 67 66 63
75 80 75 70 70 70 70 65 62 63 62 60 59 60 61 62 64 61 58 51 50 48
74 81 75 71 67 64 65 64 61 60 59 57 58 59 57 54 54 52 46 43 42 41
74 76 78 69 65 68 61 60 58 57 56 54 52 50 47 45 44 42 39 38 38 38
62 63 63 65 64 65 66 63 60 58 57 52 47 45 47 46 44 40 40 41 41 41
62 63 64 67 66 67 65 65 65 62 61 55 49 48 46 45 44 44 44 44 44 43
62 60 59 60 61 64 66 67 65 62 57 52 50 49 48 47 48 46 47 48 46 44
63 60 58 57 57 60 63 64 62 60 57 54 52 52 53 53 52 52 52 49 49 48
59 59 62 63 62 62 60 61 62 61 60 56 55 56 57 57 56 53 51 51 49 52